Regional Weather Roundup
Issued by NWS Grand Forks, ND

Home | Current Version | Previous Version | Text Only | Print | Product List | Glossary On
Versions: 1 2 3 4 5 6 7 8 9 10 11 12 13 14 15 16 17 18 19 20 21 22 23 24 25 26 27 28 29 30 31 32 33 34 35 36 37 38 39 40 41 42 43 44 45 46 47 48 49 50
000
ASUS43 KFGF 281331
RWRFGF
PRAIRIE TO PINES  WEATHER ROUNDUP
NATIONAL WEATHER SERVICE EASTERN NORTH DAKOTA/GRAND FORKS ND
800 AM CDT FRI AUG 28 2015

 **SATELLITE DATA USED TO AUGMENT SKY COVER AT AUTOMATED STATIONS**
 *****  WEATHER ACROSS EASTERN NORTH DAKOTA  *****

CITY           SKY/WX    TMP DP  RH WIND       PRES   REMARKS
GRAND FORKS    MOSUNNY   64  62  93 S10       29.84F
GRAND FRKS AFB MOSUNNY   64  62  92 S8        29.84F
GRAND FRKS NWS   N/A     63 N/A N/A S6          N/A
DEVILS LAKE    MOSUNNY   68  57  68 SW13      29.83F
FARGO          MOSUNNY   65  62  90 S10       29.92R
WAHPETON ARPT  CLOUDY    63  61  94 S7        29.95R
$$

 ***** WEATHER ACROSS CENTRAL AND WESTERN NORTH DAKOTA  *****

CITY           SKY/WX    TMP DP  RH WIND       PRES   REMARKS
BISMARCK       PTCLDY    62  61  96 SE3       29.91S
MINOT          MOCLDY    67  58  72 SW13      29.83R
JAMESTOWN      SUNNY     60  58  92 S5        29.89F
MINOT AFB      MOCLDY    65  63  93 W8        29.82R
GARRISON         N/A     63  60  90 S6        29.88S
WILLISTON      CLEAR     58  56  93 CALM      29.89R
DICKINSON      CLEAR     59  55  87 SW6       29.92R
HETTINGER      CLEAR     57  55  93 CALM      29.97R
$$

 *****  OTHER AIRPORT OBSERVATIONS IN OUR AREA  *****

CITY           SKY/WX    TMP DP  RH WIND       PRES   REMARKS
WALHALLA       FAIR      64  64 100 MISG      29.86R
GRAFTON AIRPOR FAIR      64  64 100 E5        29.84R
VALLEY CITY AR FAIR      63  63 100 CALM      29.92R
CANDO          FAIR      64  61  88 S7        29.83F
CAVALIER APRT  FAIR      64  63  94 S3        29.83R
GWINNER          N/A     64  64 100 S10       29.93S
ROLLA          FAIR      63  63 100 SW10      29.82F
 ***** THE ABOVE OBSERVATIONS ARE NON NWS ARE NOT QUALITY
       CONTROLLED AND MAY MIS-REPORT RAIN FOR SNOW...
$$

  *****  WEATHER ACROSS NORTHERN MINNESOTA  *****

CITY           SKY/WX    TMP DP  RH WIND       PRES   REMARKS
FLAG ISLAND    FOG       64  64 100 W7        29.86R VSB 1/2
WARROAD        FOG       64  61  88 SW7       29.86S VSB 3/4
ROSEAU         CLOUDY    66  61  82 CALM      29.87R HAZE
HALLOCK        MOSUNNY   64  63  94 S5        29.84R
THF RVR FALLS  MOSUNNY  N/A N/A N/A S10       29.86F
BAUDETTE       FOG       63  63 100 S8        29.87F VSB 3/4
WASKISH        CLOUDY    66  64  94 S3        29.90S FOG
CROOKSTON      MOSUNNY   64  64 100 S10       29.88S
STEPHEN NDAWN    N/A     64  64 100 S7          N/A
GREENBUSH NDAW   N/A     64  64 100 SW2         N/A
$$
  *****  WEATHER ACROSS CENTRAL AND WEST MINNESOTA  *****

CITY           SKY/WX    TMP DP  RH WIND       PRES   REMARKS
FOSSTON        MOSUNNY   64  63  94 S14       29.92F
BEMIDJI        FOG       64  64 100 SW8       29.93S VSB 3/4
PARK RAPIDS    CLOUDY    65  64  97 SW7       29.96R FOG
ELBOW LAKE     CLOUDY    63  63  99 S10       29.96S
WADENA         SUNNY     63  63 100 SW8       29.96S
DETROIT LAKES  CLOUDY    64  64 100 S5        29.96R FOG
MOORHEAD       CLOUDY    64  63  94 S7        29.94R FOG
FERGUS FALLS   SUNNY     63  63 100 S9        29.95S
MORRIS MN      PTSUNNY   64  63  94 SE7       29.96F FOG
STAPLES        MOSUNNY   61  61 100 S8        29.97S
$$
  *****  WEATHER ELSEWHERE ACROSS MINNESOTA  *****

CITY           SKY/WX    TMP DP  RH WIND       PRES   REMARKS
DULUTH         CLOUDY    62  58  86 SW8       29.98S
INTRNTL FALLS  CLOUDY    62  62 100 VRB3      29.91S FOG
ELY            CLOUDY    61  59  94 CALM      29.96S
CLOQUET        CLOUDY    61  57  88 SW5       29.98S
WHEATON        CLOUDY    63  61  94 SE6       29.96F
BRAINERD       CLOUDY    62  60  93 SW8       29.99R
HIBBING        CLOUDY    59  58  96 SE3       29.96S
ALEXANDRIA     CLOUDY    64  63  96 S10       30.00S
SAINT CLOUD    PTSUNNY   61  60  97 CALM      30.00S
MINNEAPOLIS    CLOUDY    65  61  87 S9        30.02R
$$

  *****  WEATHER ACROSS SOUTH DAKOTA  *****

CITY           SKY/WX    TMP DP  RH WIND       PRES   REMARKS
SIOUX FALLS    CLOUDY    65  63  93 E9        29.91F
BROOKINGS      CLOUDY    64  61  88 NE7       29.97R
WATERTOWN      CLOUDY    66  63  90 NE5       29.97R
HURON          PTSUNNY   65  63  93 CALM      29.93R
SISSETON         N/A     65  64  97 S5        29.93F
ABERDEEN       MOSUNNY   64  62  93 S3        29.93F FOG
MITCHELL       CLOUDY    66  65  96 NE8       29.92S
PIERRE         CLOUDY    68  66  93 NE3       29.93S
MOBRIDGE       FOG       67  67 100 S6        29.93R VSB 1/2
RAPID CITY     PTCLDY    58  53  84 NW8       30.02R
$$

  *****  SOME WEATHER IN NEARBY STATES *****

CITY           SKY/WX    TMP DP  RH WIND       PRES   REMARKS
GLASGOW MT     MOCLDY    56  51  84 NW5       29.92R
GREAT FALLS MT CLOUDY    63  39  41 S10       30.04R HAZE
CHEYENNE WY    CLOUDY    59  48  67 NW10      30.24R
SCOTTSBLUFF NE CLEAR     58  52  80 NW8       30.09R
OMAHA NE       CLOUDY    70  67  90 S14       29.84R
DES MOINES IA  LGT RAIN  65  61  87 SE15      29.96F
DAVENPORT IA   CLOUDY    62  59  90 SE5       30.11F
CHICAGO IL     CLOUDY    64  58  80 S5        30.14R
EAU CLAIRE WI  CLOUDY    63  58  83 S5        30.04R
LA CROSSE WI   CLOUDY    66  60  81 S7        30.06R
$$

  *****  SOME NATIONAL WEATHER *****

CITY           SKY/WX    TMP DP  RH WIND       PRES   REMARKS
LA GUARDIA NY  MOSUNNY   70  55  59 N5        30.17S
RALEIGH NC     MOSUNNY   70  62  76 NE3       30.19R
ATLANTA GA     CLOUDY    73  68  83 E10       30.15R HAZE
NEW ORLEANS LA MOSUNNY   78  66  66 N9        29.99R
OKLAHOMA CITY  LGT RAIN  70  64  81 SE9       29.99S
ALBUQUERQUE NM PTCLDY    65  54  67 CALM      30.22R
SALT LAKE CITY PTCLDY    66  50  56 SE7       30.18R
LOS ANGELES CA PTCLDY    73  65  75 CALM      29.88S
BOISE ID       MOCLDY    72  36  26 SE10      30.00S
SEATTLE WA     LGT RAIN  61  57  88 SE12      30.01S
$$

*** WEATHER ACROSS MANITOBA...SASKATCHEWAN AND ONTARIO ***
                ***ONTARIO***

CITY           SKY/WX    TMP DP  RH WIND       PRES   REMARKS
GERALDTON      CLOUDY    54  50  87 S3        29.96S
THUNDER BAY    CLOUDY    54  50  87 N2        29.96S
SIOUX LOOKOUT  CLOUDY    61  61 100 S6        29.89S
TORONTO        PTSUNNY   61  52  72 NW2       30.22S
BIG TROUT LK   FOG       55  55 100 S6        29.85  VSB 1
PICKLE LAKE    CLOUDY    57  54  88 VRB2      29.87R
DRYDEN         PTSUNNY   63  61  94 SW8       29.89S
KENORA         LGT RAIN  64  63  94 S10       29.82F FOG
$$
                *** MANITOBA***

CITY           SKY/WX    TMP DP  RH WIND       PRES   REMARKS
BRANDON        PTSUNNY   57  57 100 N5        29.80S
DAUPHIN        SUNNY     61  57  88 SW9       29.80R
ISLAND LAKE    PTSUNNY   57  55  94 SE7       29.81R
PILOT MOUND      N/A    N/A N/A N/A E7          N/A
THE PAS        PTCLDY    57  57 100 SE3       29.75R
THOMPSON       MOSUNNY   52  52 100 VRB2      29.75F
WINNIPEG       CLOUDY    66  61  82 SW2       29.78R
LYNN LAKE      SUNNY     55  52  88 MISG      29.70S
CHURCHILL      MOSUNNY   46  46 100 S5        29.76S FOG
$$
                ***SASKATCHEWAN***

CITY           SKY/WX    TMP DP  RH WIND       PRES   REMARKS
ESTEVAN        CLOUDY    57  55  94 W6        29.87R SMOKE
KINDERSLEY     MOCLDY    57  55  94 SE6       29.85S FOG
LLOYDMINSTER   MOCLDY    55  50  82 SE6       29.82F
PRINCE ALBERT  MOCLDY    54  52  94 NW5       29.83R
REGINA         MOCLDY    54  52  94 W6        29.87R FOG
YORKTON        CLEAR     57  55  94 NW2       29.84R
N. BATTLEFORD  PTCLDY    57  55  94 N6        29.86R
LA RONGE       PTCLDY    57  55  94 SW5       29.72S
SASKATOON      MOCLDY    57  55  94 S3        29.83R
SWIFT CURRENT  CLEAR     59  46  63 SW12      29.86R HAZE
$$
NOTE: THESE ARE AUTOMATED STATIONS WITH LIMITED QUALITY CONTROL
      "FAIR" INDICATES FEW OR NO CLOUDS BELOW 12,000 FEET WITH NO
      SIGNIFICANT WEATHER AND/OR OBSTRUCTIONS TO VISIBILITY.
      SKY/WX - SKY CONDITION AND SIGNIFICANT WEATHER.
      TMP - AIR TEMPERATURE.    DP   - DEWPOINT TEMPERATURE.
      RH  - RELATIVE HUMIDITY.  PRES - PRESSURE.
      HX  - HEAT INDEX.         WCI  - WIND CHILL INDEX.
$


USA.gov is the U.S. government's official web portal to all federal, state and local government web resources and services.